Tracking 22130 objects as of 21-Jan-2021
HD Live streaming from Space Station
objects crossing your sky now

METEOR 2-8 DEB

Track METEOR 2-8 DEB now!
10-day predictions


NORAD ID: 36349
Int'l Code: 1982-025AK
Perigee: 833.8 km
Apogee: 857.2 km
Inclination: 82.5 °
Period: 101.7 minutes
Semi major axis: 7216 km
RCS: 0.0012 m2 (small)
Launch date: March 25, 1982
Source: Commonwealth of Independent States (former USSR) (CIS)
Launch site: PLESETSK MISSILE AND SPACE COMPLEX (PKMTR)

Note: This is SATELLITE DEBRIS
aabbcc
Your satellite tracking list
Your tracking list is empty




NASA's NSSDC Master Catalog

Two Line Element Set (TLE):
1 36349U 82025AK  21013.75187874  .00000939  00000-0  46624-3 0  9992
2 36349  82.5175  26.4000 0016196  25.5226 334.6748 14.16154805928663
Source of the keplerian elements: AFSPC